Hourly Weather Antonovo

Today, 9 July, Thursday

Time Temperature Precipitation Wind Pressure Humidity
00:00 +9°C° 0 mm 2 mps 740 mmHg 95%
01:00 +8°C° 0 mm 2 mps 740 mmHg 95%
02:00 +8°C° 0 mm 2 mps 741 mmHg 96%
03:00 +8°C° 0 mm 2 mps 741 mmHg 95%
04:00 +8°C° 0 mm 2 mps 741 mmHg 95%
05:00 +8°C° 0 mm 2 mps 741 mmHg 95%
06:00 +9°C° 0 mm 2 mps 741 mmHg 92%
07:00 +12°C° 0 mm 2 mps 741 mmHg 88%
08:00 +12°C° 0 mm 3 mps 741 mmHg 85%
09:00 +13°C° 0.2 mm 3 mps 742 mmHg 79%
10:00 +14°C° 0.2 mm 4 mps 742 mmHg 73%
11:00 +15°C° 0.2 mm 4 mps 742 mmHg 66%
12:00 +17°C° 0.1 mm 4 mps 742 mmHg 65%
13:00 +18°C° 0.1 mm 4 mps 742 mmHg 63%
14:00 +17°C° 0.1 mm 5 mps 742 mmHg 62%
15:00 +18°C° 0.2 mm 4 mps 742 mmHg 63%
16:00 +18°C° 0.2 mm 4 mps 742 mmHg 64%
17:00 +18°C° 0.2 mm 3 mps 742 mmHg 64%
18:00 +17°C° 0.1 mm 3 mps 742 mmHg 70%
19:00 +16°C° 0.1 mm 2 mps 742 mmHg 76%
20:00 +15°C° 0.1 mm 2 mps 741 mmHg 82%
21:00 +14°C° 0 mm 2 mps 742 mmHg 85%
22:00 +13°C° 0 mm 2 mps 742 mmHg 87%
23:00 +12°C° 0 mm 2 mps 742 mmHg 89%

Tomorrow, 10 July, Friday

Time Temperature Precipitation Wind Pressure Humidity
00:00 +11°C° 0 mm 3 mps 742 mmHg 90%
01:00 +11°C° 0 mm 3 mps 741 mmHg 90%
02:00 +11°C° 0 mm 3 mps 741 mmHg 90%
03:00 +11°C° 0.4 mm 4 mps 741 mmHg 90%
04:00 +11°C° 0.4 mm 4 mps 740 mmHg 91%
05:00 +12°C° 0.4 mm 4 mps 740 mmHg 91%
06:00 +12°C° 1.2 mm 5 mps 739 mmHg 93%
07:00 +13°C° 1.2 mm 6 mps 739 mmHg 94%
08:00 +13°C° 1.2 mm 6 mps 739 mmHg 96%
09:00 +14°C° 0.5 mm 6 mps 739 mmHg 95%
10:00 +15°C° 0.5 mm 6 mps 738 mmHg 94%
11:00 +17°C° 0.5 mm 6 mps 738 mmHg 93%
12:00 +19°C° 0.8 mm 6 mps 738 mmHg 91%
13:00 +20°C° 0.8 mm 7 mps 738 mmHg 88%
14:00 +21°C° 0.8 mm 7 mps 738 mmHg 86%
15:00 +21°C° 0.7 mm 6 mps 738 mmHg 86%
16:00 +21°C° 0.7 mm 5 mps 739 mmHg 86%
17:00 +21°C° 0.7 mm 5 mps 739 mmHg 86%
18:00 +20°C° 0.1 mm 4 mps 739 mmHg 88%
19:00 +20°C° 0.1 mm 3 mps 739 mmHg 90%
20:00 +19°C° 0.1 mm 2 mps 739 mmHg 92%
21:00 +18°C° 0 mm 2 mps 739 mmHg 92%
22:00 +18°C° 0 mm 2 mps 739 mmHg 93%
23:00 +18°C° 0 mm 2 mps 739 mmHg 93%

Day after tomorrow, 11 July, Saturday

Time Temperature Precipitation Wind Pressure Humidity
00:00 +18°C° 0.2 mm 3 mps 739 mmHg 94%
01:00 +18°C° 0.2 mm 3 mps 739 mmHg 95%
02:00 +18°C° 0.2 mm 4 mps 739 mmHg 96%
03:00 +18°C° 0.3 mm 4 mps 739 mmHg 96%
04:00 +17°C° 0.3 mm 5 mps 739 mmHg 96%
05:00 +17°C° 0.3 mm 5 mps 739 mmHg 97%
06:00 +19°C° 0.2 mm 5 mps 739 mmHg 95%
07:00 +20°C° 0.2 mm 5 mps 740 mmHg 93%
08:00 +21°C° 0.2 mm 5 mps 740 mmHg 91%
09:00 +21°C° 0.1 mm 5 mps 741 mmHg 88%
10:00 +21°C° 0.1 mm 4 mps 741 mmHg 85%
11:00 +22°C° 0.1 mm 3 mps 742 mmHg 82%
12:00 +21°C° 0 mm 4 mps 742 mmHg 79%
13:00 +21°C° 0 mm 5 mps 742 mmHg 76%
14:00 +21°C° 0 mm 5 mps 742 mmHg 73%
15:00 +20°C° 0 mm 5 mps 742 mmHg 75%
16:00 +19°C° 0 mm 4 mps 743 mmHg 78%
17:00 +18°C° 0 mm 4 mps 743 mmHg 80%
18:00 +17°C° 0 mm 3 mps 743 mmHg 81%
19:00 +16°C° 0 mm 3 mps 743 mmHg 82%
20:00 +16°C° 0 mm 2 mps 744 mmHg 83%
21:00 +14°C° 0 mm 3 mps 744 mmHg 84%
22:00 +14°C° 0 mm 3 mps 744 mmHg 84%
23:00 +13°C° 0 mm 3 mps 745 mmHg 85%

12 July, Sunday

Time Temperature Precipitation Wind Pressure Humidity
00:00 +13°C° 0 mm 3 mps 745 mmHg 83%
01:00 +12°C° 0 mm 3 mps 745 mmHg 82%
02:00 +12°C° 0 mm 3 mps 745 mmHg 80%
03:00 +12°C° 0 mm 3 mps 745 mmHg 82%
04:00 +11°C° 0 mm 3 mps 745 mmHg 83%
05:00 +11°C° 0 mm 3 mps 745 mmHg 84%
06:00 +11°C° 0.5 mm 3 mps 745 mmHg 88%
07:00 +10°C° 0.5 mm 2 mps 745 mmHg 91%
08:00 +10°C° 0.5 mm 2 mps 746 mmHg 94%
09:00 +12°C° 0.7 mm 2 mps 746 mmHg 91%
10:00 +12°C° 0.7 mm 1 mps 746 mmHg 87%
11:00 +13°C° 0.7 mm 1 mps 746 mmHg 84%
12:00 +14°C° 0.2 mm 1 mps 746 mmHg 79%
13:00 +15°C° 0.2 mm 1 mps 745 mmHg 74%
14:00 +16°C° 0.2 mm 1 mps 745 mmHg 70%
15:00 +18°C° 0 mm 1 mps 745 mmHg 68%
16:00 +18°C° 0 mm 1 mps 745 mmHg 67%
17:00 +19°C° 0 mm 1 mps 745 mmHg 66%
18:00 +18°C° 0 mm 1 mps 745 mmHg 72%
19:00 +16°C° 0 mm 1 mps 744 mmHg 78%
20:00 +15°C° 0 mm 1 mps 744 mmHg 84%
21:00 +15°C° 0.1 mm 2 mps 744 mmHg 86%
22:00 +14°C° 0.1 mm 2 mps 744 mmHg 89%
23:00 +13°C° 0.1 mm 2 mps 744 mmHg 91%

13 July, Monday

Time Temperature Precipitation Wind Pressure Humidity
00:00 +13°C° 0.1 mm 2 mps 744 mmHg 92%
01:00 +13°C° 0.1 mm 2 mps 744 mmHg 93%
02:00 +13°C° 0.1 mm 2 mps 744 mmHg 94%
03:00 +12°C° 0.1 mm 2 mps 743 mmHg 94%
04:00 +12°C° 0.1 mm 2 mps 743 mmHg 94%
05:00 +11°C° 0.1 mm 3 mps 743 mmHg 94%
06:00 +11°C° 0 mm 3 mps 743 mmHg 92%
07:00 +12°C° 0 mm 3 mps 743 mmHg 90%
08:00 +12°C° 0 mm 3 mps 743 mmHg 88%
09:00 +13°C° 0.1 mm 3 mps 743 mmHg 86%
10:00 +14°C° 0.1 mm 3 mps 743 mmHg 83%
11:00 +16°C° 0.1 mm 3 mps 743 mmHg 80%
12:00 +16°C° 0.7 mm 3 mps 742 mmHg 82%
13:00 +15°C° 0.7 mm 2 mps 742 mmHg 84%
14:00 +15°C° 0.7 mm 2 mps 742 mmHg 86%
15:00 +15°C° 0.7 mm 2 mps 742 mmHg 88%
16:00 +14°C° 0.7 mm 1 mps 741 mmHg 91%
17:00 +14°C° 0.7 mm 1 mps 741 mmHg 93%
18:00 +14°C° 0.3 mm 1 mps 741 mmHg 93%
19:00 +13°C° 0.3 mm 2 mps 741 mmHg 93%
20:00 +13°C° 0.3 mm 2 mps 741 mmHg 93%
21:00 +12°C° 0.2 mm 3 mps 740 mmHg 94%
22:00 +11°C° 0.2 mm 3 mps 740 mmHg 94%
23:00 +11°C° 0.2 mm 4 mps 740 mmHg 95%

14 July, Tuesday

Time Temperature Precipitation Wind Pressure Humidity
00:00 +11°C° 0.5 mm 4 mps 740 mmHg 95%
01:00 +10°C° 0.5 mm 5 mps 740 mmHg 95%
02:00 +10°C° 0.5 mm 5 mps 739 mmHg 95%
03:00 +10°C° 0.5 mm 5 mps 739 mmHg 95%
04:00 +12°C° 0.5 mm 5 mps 739 mmHg 96%
05:00 +11°C° 0.5 mm 6 mps 738 mmHg 96%
06:00 +11°C° 0.2 mm 6 mps 738 mmHg 95%
07:00 +11°C° 0.2 mm 6 mps 738 mmHg 95%
08:00 +11°C° 0.2 mm 6 mps 738 mmHg 94%
09:00 +13°C° 0.1 mm 6 mps 738 mmHg 93%
10:00 +14°C° 0.1 mm 6 mps 738 mmHg 91%
11:00 +14°C° 0.1 mm 6 mps 738 mmHg 90%
12:00 +15°C° 0.1 mm 7 mps 737 mmHg 88%
13:00 +15°C° 0.1 mm 7 mps 737 mmHg 86%
14:00 +16°C° 0.1 mm 7 mps 737 mmHg 84%
15:00 +16°C° 0 mm 7 mps 737 mmHg 81%
16:00 +17°C° 0 mm 6 mps 736 mmHg 77%
17:00 +17°C° 0 mm 6 mps 736 mmHg 74%
18:00 +17°C° 0 mm 6 mps 736 mmHg 73%
19:00 +17°C° 0 mm 6 mps 736 mmHg 73%
20:00 +17°C° 0 mm 6 mps 735 mmHg 72%
21:00 +16°C° 0.3 mm 6 mps 735 mmHg 74%
22:00 +15°C° 0.3 mm 6 mps 735 mmHg 77%
23:00 +15°C° 0.3 mm 6 mps 735 mmHg 79%
Show more